{"data":{"norad_id":53898,"epoch":"2026-09-20T10:24:39.799008Z","epoch_age_seconds":89750,"freshness":"FRESH","line1":"1 53898U 22119N   26263.43379397  .00003510  00000+0  11795-3 0  9996","line2":"2 53898  53.1604 163.6666 0001612 104.6900 255.4281 15.33566994221168","mean_motion":15.33566994,"eccentricity":0.0001612,"inclination_deg":53.1604,"raan_deg":163.6666,"arg_perigee_deg":104.69,"mean_anomaly_deg":255.4281,"bstar":0.00011795,"rev_number":22116,"period_min":93.898734495064,"perigee_km":464.07708748844,"apogee_km":466.28337296346,"semimajor_km":6843.317230226,"source":"CELESTRAK","updated_at":"2026-09-21T09:00:33.030533Z"}}